BFT2219 LOWW-EDDL

Flight info

Callsign BFT2219
Flight time N/A
Altitude 38000
Route BUWUT DCT DITIS DCT RAPET T843 VELIS DCT AMETU T852 TINSA T854 DOMUX DOMUX1A
Aircraft A319/M-SDE3FGHIRWY/LB1

Departure

Time 2026-05-05 12:27
Airport Vienna International Airport (LOWW)

Arrival

Time N/A
Airport Düsseldorf Airport (EDDL)
Time Latitude Longitude Altitude Speed Heading
2026-05-05 12:16 48.11659 16.56956 623 ft 0 kts 26°
2026-05-05 12:20 48.11655 16.56953 622 ft 3 kts 26°
2026-05-05 12:20 48.11638 16.56940 622 ft 3 kts 26°
2026-05-05 12:20 48.11621 16.56928 624 ft 3 kts 26°
2026-05-05 12:21 48.11604 16.56916 615 ft 3 kts 26°
2026-05-05 12:21 48.11587 16.56904 610 ft 3 kts 26°
2026-05-05 12:21 48.11571 16.56893 614 ft 2 kts 59°
2026-05-05 12:21 48.11567 16.56878 623 ft 0 kts 112°
2026-05-05 12:23 48.11567 16.56879 610 ft 1 kts 111°
2026-05-05 12:23 48.11566 16.56890 621 ft 2 kts 90°
2026-05-05 12:24 48.11566 16.56929 610 ft 7 kts 90°
2026-05-05 12:24 48.11546 16.57019 613 ft 11 kts 116°
2026-05-05 12:24 48.11505 16.57145 612 ft 16 kts 116°
2026-05-05 12:24 48.11455 16.57300 619 ft 17 kts 116°
2026-05-05 12:25 48.11467 16.57442 610 ft 16 kts 28°
2026-05-05 12:25 48.11569 16.57526 613 ft 17 kts 29°
2026-05-05 12:25 48.11684 16.57526 617 ft 18 kts 342°
2026-05-05 12:25 48.11806 16.57487 610 ft 18 kts 21°
2026-05-05 12:26 48.11895 16.57573 617 ft 16 kts 347°
2026-05-05 12:26 48.11987 16.57609 610 ft 15 kts 73°
2026-05-05 12:26 48.11964 16.57760 610 ft 15 kts 114°
2026-05-05 12:26 48.11891 16.57854 612 ft 14 kts 161°
2026-05-05 12:27 48.11734 16.57916 619 ft 49 kts 163°
2026-05-05 12:27 48.11178 16.58156 614 ft 114 kts 164°
2026-05-05 12:27 48.10257 16.58552 753 ft 152 kts 163°
2026-05-05 12:27 48.09224 16.58987 1335 ft 155 kts 168°
2026-05-05 12:28 48.08185 16.59436 2089 ft 155 kts 169°
2026-05-05 12:28 48.07122 16.59875 2652 ft 169 kts 169°
2026-05-05 12:28 48.05911 16.60406 2998 ft 198 kts 158°
2026-05-05 12:28 48.04912 16.62012 3415 ft 239 kts 119°
2026-05-05 12:29 48.04755 16.64650 3937 ft 278 kts 82°
2026-05-05 12:29 48.05688 16.67276 4819 ft 296 kts 52°
2026-05-05 12:29 48.07187 16.69431 5825 ft 301 kts 40°
2026-05-05 12:29 48.08858 16.71353 6828 ft 305 kts 37°
2026-05-05 12:30 48.10568 16.73256 7725 ft 310 kts 38°
2026-05-05 12:30 48.12271 16.75254 8677 ft 313 kts 40°
2026-05-05 12:30 48.14059 16.77117 9638 ft 317 kts 27°
2026-05-05 12:30 48.16136 16.78231 10448 ft 320 kts
2026-05-05 12:31 48.18365 16.78437 11120 ft 329 kts 352°
2026-05-05 12:31 48.20694 16.77886 11413 ft 351 kts 347°
2026-05-05 12:31 48.23211 16.77206 11700 ft 373 kts 347°
2026-05-05 12:31 48.25808 16.76499 12267 ft 384 kts 347°
2026-05-05 12:32 48.28447 16.75788 13052 ft 388 kts 347°
2026-05-05 12:32 48.31124 16.75077 13778 ft 393 kts 348°
2026-05-05 12:32 48.33799 16.74177 14436 ft 395 kts 340°
2026-05-05 12:32 48.36345 16.72627 15119 ft 395 kts 329°
2026-05-05 12:33 48.38798 16.70716 15836 ft 397 kts 329°
2026-05-05 12:33 48.41159 16.68576 16630 ft 396 kts 319°
2026-05-05 12:33 48.43209 16.65845 17404 ft 392 kts 309°
2026-05-05 12:33 48.44870 16.62617 18181 ft 389 kts 298°
2026-05-05 12:34 48.46101 16.59008 18785 ft 388 kts 289°
2026-05-05 12:34 48.47051 16.55132 19370 ft 391 kts 288°
2026-05-05 12:34 48.47999 16.51267 19922 ft 395 kts 287°
2026-05-05 12:34 48.48957 16.47385 20579 ft 395 kts 287°
2026-05-05 12:35 48.49921 16.43490 21119 ft 399 kts 289°
2026-05-05 12:35 48.50896 16.39551 21584 ft 404 kts 288°
2026-05-05 12:35 48.51889 16.35541 22119 ft 406 kts 288°
2026-05-05 12:35 48.52876 16.31554 22600 ft 411 kts 289°
2026-05-05 12:36 48.53877 16.27498 23117 ft 413 kts 288°
2026-05-05 12:36 48.54877 16.23414 23535 ft 418 kts 288°
2026-05-05 12:36 48.55876 16.19293 23991 ft 419 kts 289°
2026-05-05 12:36 48.56879 16.15143 24370 ft 423 kts 289°
2026-05-05 12:37 48.57912 16.10972 24770 ft 425 kts 290°
2026-05-05 12:37 48.59053 16.06772 25192 ft 428 kts 291°
2026-05-05 12:37 48.60273 16.02550 25615 ft 430 kts 292°
2026-05-05 12:37 48.61473 15.98510 26023 ft 432 kts 293°
2026-05-05 12:38 48.62693 15.94411 26405 ft 434 kts 292°
2026-05-05 12:38 48.63943 15.90173 26807 ft 437 kts 292°
2026-05-05 12:38 48.65150 15.86015 27172 ft 439 kts 292°
2026-05-05 12:38 48.66363 15.81768 27553 ft 441 kts 291°
2026-05-05 12:39 48.67567 15.77500 27787 ft 442 kts 292°
2026-05-05 12:39 48.68767 15.73224 27822 ft 441 kts 291°
2026-05-05 12:39 48.69961 15.68962 27821 ft 440 kts 291°
2026-05-05 12:39 48.71157 15.64702 27815 ft 439 kts 291°
2026-05-05 12:40 48.72353 15.60446 27816 ft 440 kts 292°
2026-05-05 12:40 48.73554 15.56180 27813 ft 440 kts 291°
2026-05-05 12:40 48.74754 15.51918 27817 ft 440 kts 291°
2026-05-05 12:40 48.75957 15.47646 27812 ft 441 kts 292°
2026-05-05 12:41 48.77159 15.43364 27833 ft 442 kts 291°
2026-05-05 12:41 48.78357 15.39072 27820 ft 442 kts 291°
2026-05-05 12:41 48.79550 15.34781 27814 ft 442 kts 291°
2026-05-05 12:41 48.80922 15.30607 27803 ft 443 kts 300°
2026-05-05 12:42 48.82665 15.26739 27802 ft 444 kts 304°
2026-05-05 12:42 48.84473 15.22933 27799 ft 445 kts 304°
2026-05-05 12:42 48.86278 15.19126 27801 ft 445 kts 304°
2026-05-05 12:42 48.88084 15.15308 27802 ft 445 kts 304°
2026-05-05 12:43 48.89885 15.11484 27803 ft 445 kts 304°
2026-05-05 12:43 48.91698 15.07671 27804 ft 445 kts 304°
2026-05-05 12:43 48.93533 15.03891 27802 ft 445 kts 304°
2026-05-05 12:43 48.95388 15.00116 27799 ft 445 kts 305°
2026-05-05 12:44 48.97249 14.96346 27797 ft 445 kts 305°
2026-05-05 12:44 48.99104 14.92576 27791 ft 445 kts 304°
2026-05-05 12:44 49.00955 14.88795 27794 ft 446 kts 304°
2026-05-05 12:44 49.02802 14.85002 27790 ft 446 kts 304°
2026-05-05 12:45 49.04646 14.81199 27791 ft 446 kts 304°
2026-05-05 12:45 49.06486 14.77399 27783 ft 446 kts 304°
2026-05-05 12:45 49.08330 14.73582 27783 ft 446 kts 304°
2026-05-05 12:45 49.10168 14.69769 27793 ft 446 kts 304°
2026-05-05 12:46 49.12004 14.65954 27795 ft 446 kts 304°
2026-05-05 12:46 49.13220 14.63425 27793 ft 446 kts 304°
2026-05-05 12:46 49.15677 14.58314 27791 ft 446 kts 304°
2026-05-05 12:46 49.16893 14.55787 27790 ft 446 kts 304°
2026-05-05 12:47 49.19349 14.50674 27786 ft 446 kts 304°
2026-05-05 12:47 49.21183 14.46847 27789 ft 446 kts 304°
2026-05-05 12:47 49.22393 14.44315 27790 ft 446 kts 304°
2026-05-05 12:47 49.24222 14.40482 27788 ft 446 kts 303°
2026-05-05 12:48 49.26047 14.36650 27795 ft 446 kts 303°
2026-05-05 12:48 49.27874 14.32810 27804 ft 446 kts 303°
2026-05-05 12:48 49.29697 14.28970 27800 ft 446 kts 303°
2026-05-05 12:48 49.31520 14.25123 27802 ft 446 kts 303°
2026-05-05 12:49 49.33340 14.21277 27797 ft 446 kts 303°
2026-05-05 12:49 49.35159 14.17429 27795 ft 446 kts 303°
2026-05-05 12:49 49.36979 14.13576 27793 ft 446 kts 303°
2026-05-05 12:49 49.38802 14.09718 27795 ft 446 kts 303°
2026-05-05 12:50 49.40621 14.05860 27795 ft 446 kts 303°
2026-05-05 12:50 49.42439 14.01997 27793 ft 446 kts 303°
2026-05-05 12:50 49.44254 13.98138 27793 ft 446 kts 303°
2026-05-05 12:50 49.46073 13.94267 27804 ft 446 kts 303°
2026-05-05 12:51 49.47888 13.90401 27803 ft 446 kts 303°
2026-05-05 12:51 49.49702 13.86526 27801 ft 446 kts 303°
2026-05-05 12:51 49.51507 13.82658 27805 ft 439 kts 302°
2026-05-05 12:51 49.53246 13.78931 27810 ft 420 kts 302°
2026-05-05 12:52 49.54935 13.75310 27808 ft 413 kts 302°
2026-05-05 12:52 49.56602 13.71731 27804 ft 410 kts 302°
2026-05-05 12:52 49.58262 13.68157 27805 ft 410 kts 302°
2026-05-05 12:52 49.59915 13.64588 27805 ft 409 kts 302°
2026-05-05 12:53 49.61570 13.61010 27806 ft 409 kts 302°
2026-05-05 12:53 49.63222 13.57435 27807 ft 410 kts 302°
2026-05-05 12:53 49.64876 13.53855 27807 ft 410 kts 302°
2026-05-05 12:53 49.66535 13.50266 27808 ft 410 kts 302°
2026-05-05 12:54 49.69767 13.43260 27809 ft 388 kts 302°
2026-05-05 12:54 49.71317 13.39893 27810 ft 383 kts 302°
2026-05-05 12:54 49.72854 13.36541 27810 ft 381 kts 302°
2026-05-05 12:55 49.74384 13.33199 27811 ft 381 kts 302°
2026-05-05 12:55 49.75914 13.29856 27810 ft 381 kts 302°
2026-05-05 12:55 49.77444 13.26509 27810 ft 381 kts 302°
2026-05-05 12:55 49.78969 13.23167 27809 ft 381 kts 302°
2026-05-05 12:56 49.80495 13.19821 27809 ft 381 kts 302°
2026-05-05 12:56 49.82023 13.16473 27808 ft 381 kts 302°
2026-05-05 12:56 49.83550 13.13116 27804 ft 381 kts 301°
2026-05-05 12:56 49.85071 13.09763 27793 ft 380 kts 301°
2026-05-05 12:57 49.86590 13.06411 27794 ft 380 kts 301°
2026-05-05 12:57 49.88111 13.03054 27794 ft 380 kts 301°
2026-05-05 12:57 49.89631 12.99696 27793 ft 380 kts 301°
2026-05-05 12:57 49.91150 12.96339 27793 ft 380 kts 301°
2026-05-05 12:58 49.92671 12.92977 27816 ft 380 kts 301°
2026-05-05 12:58 49.94191 12.89620 27823 ft 380 kts 301°
2026-05-05 12:58 49.95704 12.86266 27828 ft 379 kts 301°
2026-05-05 12:58 49.97214 12.82906 27844 ft 379 kts 301°
2026-05-05 12:59 49.98721 12.79549 27844 ft 379 kts 301°
2026-05-05 12:59 50.00206 12.76240 27841 ft 378 kts 301°
2026-05-05 12:59 50.01729 12.72840 27836 ft 378 kts 301°
2026-05-05 13:00 50.04724 12.66125 27831 ft 378 kts 301°
2026-05-05 13:00 50.06200 12.62809 27829 ft 378 kts 301°
2026-05-05 13:01 50.10713 12.52692 27822 ft 377 kts 301°
2026-05-05 13:01 50.12209 12.49330 27822 ft 377 kts 301°
2026-05-05 13:01 50.13700 12.45963 27819 ft 377 kts 301°
2026-05-05 13:01 50.15189 12.42594 27818 ft 377 kts 301°
2026-05-05 13:02 50.16659 12.39267 27813 ft 378 kts 301°
2026-05-05 13:02 50.18075 12.35774 27814 ft 375 kts 294°
2026-05-05 13:02 50.19152 12.32148 27813 ft 372 kts 287°
2026-05-05 13:02 50.19929 12.28319 27810 ft 369 kts 280°
2026-05-05 13:03 50.20537 12.24430 27805 ft 369 kts 280°
2026-05-05 13:03 50.21148 12.20547 27803 ft 369 kts 280°
2026-05-05 13:03 50.21760 12.16661 27819 ft 369 kts 280°
2026-05-05 13:03 50.22375 12.12769 27820 ft 369 kts 281°
2026-05-05 13:04 50.22991 12.08864 27823 ft 369 kts 280°
2026-05-05 13:04 50.23607 12.04934 27826 ft 369 kts 280°
2026-05-05 13:04 50.24214 12.01037 27847 ft 369 kts 280°
2026-05-05 13:04 50.24819 11.97140 27843 ft 369 kts 280°
2026-05-05 13:05 50.25423 11.93244 27840 ft 369 kts 280°
2026-05-05 13:05 50.26029 11.89349 27840 ft 369 kts 280°
2026-05-05 13:05 50.26635 11.85446 27834 ft 369 kts 280°
2026-05-05 13:05 50.27239 11.81546 27834 ft 370 kts 279°
2026-05-05 13:06 50.27843 11.77641 27837 ft 370 kts 280°
2026-05-05 13:06 50.28449 11.73737 27839 ft 370 kts 280°
2026-05-05 13:06 50.29053 11.69827 27836 ft 370 kts 280°
2026-05-05 13:06 50.29653 11.65921 27835 ft 370 kts 279°
2026-05-05 13:07 50.30251 11.62006 27833 ft 370 kts 279°
2026-05-05 13:07 50.30847 11.58091 27849 ft 370 kts 279°
2026-05-05 13:07 50.31433 11.54187 27846 ft 370 kts 279°
2026-05-05 13:07 50.32017 11.50258 27837 ft 370 kts 279°
2026-05-05 13:08 50.32596 11.46339 27840 ft 370 kts 279°
2026-05-05 13:08 50.33176 11.42414 27840 ft 370 kts 279°
2026-05-05 13:08 50.33755 11.38498 27838 ft 370 kts 279°
2026-05-05 13:08 50.34335 11.34573 27832 ft 370 kts 279°
2026-05-05 13:09 50.34911 11.30652 27837 ft 370 kts 279°
2026-05-05 13:09 50.35487 11.26727 27832 ft 370 kts 279°
2026-05-05 13:09 50.36062 11.22805 27832 ft 369 kts 279°
2026-05-05 13:09 50.36637 11.18885 27830 ft 369 kts 279°
2026-05-05 13:10 50.37211 11.14965 27830 ft 369 kts 279°
2026-05-05 13:10 50.37781 11.11043 27852 ft 369 kts 278°
2026-05-05 13:10 50.38350 11.07117 27848 ft 369 kts 278°
2026-05-05 13:10 50.38917 11.03194 27849 ft 369 kts 278°
2026-05-05 13:11 50.39484 10.99271 27847 ft 369 kts 278°
2026-05-05 13:11 50.40051 10.95355 27845 ft 369 kts 278°
2026-05-05 13:11 50.40618 10.91429 27848 ft 369 kts 278°
2026-05-05 13:11 50.41184 10.87502 27844 ft 369 kts 278°
2026-05-05 13:12 50.41746 10.83571 27844 ft 369 kts 278°
2026-05-05 13:12 50.42302 10.79643 27844 ft 369 kts 278°
2026-05-05 13:12 50.42857 10.75715 27843 ft 369 kts 278°
2026-05-05 13:12 50.43417 10.71768 27838 ft 369 kts 278°
2026-05-05 13:13 50.43976 10.67853 27859 ft 369 kts 278°
2026-05-05 13:13 50.44545 10.63921 27853 ft 370 kts 278°
2026-05-05 13:13 50.45114 10.59992 27847 ft 370 kts 278°
2026-05-05 13:13 50.45683 10.56053 27842 ft 370 kts 278°
2026-05-05 13:14 50.46247 10.52121 27833 ft 370 kts 278°
2026-05-05 13:14 50.46835 10.48191 27832 ft 371 kts 281°
2026-05-05 13:14 50.47691 10.44354 27830 ft 374 kts 287°
2026-05-05 13:14 50.48651 10.40554 27831 ft 374 kts 287°
2026-05-05 13:15 50.49601 10.36754 27828 ft 374 kts 287°
2026-05-05 13:15 50.50544 10.32944 27828 ft 374 kts 286°
2026-05-05 13:15 50.51483 10.29132 27833 ft 374 kts 286°
2026-05-05 13:15 50.52422 10.25315 27848 ft 374 kts 286°
2026-05-05 13:16 50.53358 10.21495 27847 ft 375 kts 286°
2026-05-05 13:16 50.54295 10.17674 27840 ft 375 kts 286°
2026-05-05 13:16 50.55240 10.13834 27832 ft 375 kts 286°
2026-05-05 13:16 50.56175 10.10028 27833 ft 375 kts 286°
2026-05-05 13:17 50.57113 10.06205 27828 ft 374 kts 286°
2026-05-05 13:17 50.58049 10.02386 27827 ft 374 kts 286°
2026-05-05 13:17 50.58982 9.98560 27828 ft 375 kts 286°
2026-05-05 13:17 50.59914 9.94730 27829 ft 375 kts 286°
2026-05-05 13:18 50.60848 9.90900 27825 ft 375 kts 286°
2026-05-05 13:18 50.61781 9.87066 27826 ft 375 kts 286°
2026-05-05 13:18 50.62710 9.83230 27816 ft 375 kts 286°
2026-05-05 13:18 50.63637 9.79395 27842 ft 375 kts 286°
2026-05-05 13:19 50.64566 9.75555 27837 ft 375 kts 285°
2026-05-05 13:19 50.65491 9.71705 27832 ft 375 kts 285°
2026-05-05 13:19 50.66411 9.67864 27829 ft 375 kts 285°
2026-05-05 13:19 50.67328 9.64036 27834 ft 375 kts 285°
2026-05-05 13:20 50.68257 9.60167 27830 ft 375 kts 285°
2026-05-05 13:20 50.69171 9.56361 27833 ft 365 kts 285°
2026-05-05 13:20 50.70056 9.52697 27828 ft 350 kts 285°
2026-05-05 13:20 50.70904 9.49183 27830 ft 337 kts 285°
2026-05-05 13:21 50.71733 9.45720 27832 ft 330 kts 285°
2026-05-05 13:21 50.72534 9.42335 27833 ft 329 kts 284°
2026-05-05 13:21 50.73330 9.38955 27837 ft 328 kts 284°
2026-05-05 13:21 50.74123 9.35573 27839 ft 329 kts 285°
2026-05-05 13:22 50.74919 9.32187 27829 ft 329 kts 285°
2026-05-05 13:22 50.75720 9.28796 27831 ft 330 kts 285°
2026-05-05 13:22 50.76523 9.25403 27831 ft 330 kts 285°
2026-05-05 13:22 50.77326 9.22008 27828 ft 330 kts 285°
2026-05-05 13:23 50.78127 9.18613 27827 ft 330 kts 285°
2026-05-05 13:23 50.78923 9.15218 27826 ft 330 kts 285°
2026-05-05 13:23 50.79716 9.11822 27825 ft 330 kts 285°
2026-05-05 13:23 50.80509 9.08424 27821 ft 329 kts 285°
2026-05-05 13:24 50.81303 9.05023 27822 ft 330 kts 285°
2026-05-05 13:24 50.82097 9.01627 27819 ft 330 kts 285°
2026-05-05 13:24 50.82994 8.98271 27817 ft 332 kts 291°
2026-05-05 13:24 50.84131 8.95076 27815 ft 336 kts 297°
2026-05-05 13:25 50.85499 8.92064 27816 ft 339 kts 303°
2026-05-05 13:25 50.86958 8.89129 27796 ft 339 kts 302°
2026-05-05 13:25 50.88407 8.86185 27792 ft 339 kts 303°
2026-05-05 13:25 50.89875 8.83257 27816 ft 340 kts 303°
2026-05-05 13:26 50.91363 8.80346 27829 ft 340 kts 304°
2026-05-05 13:26 50.92867 8.77450 27837 ft 340 kts 304°
2026-05-05 13:26 50.93872 8.75539 27831 ft 340 kts 304°
2026-05-05 13:26 50.95398 8.72674 27833 ft 341 kts 305°
2026-05-05 13:27 50.96935 8.69830 27834 ft 335 kts 306°
2026-05-05 13:27 50.98443 8.67081 27826 ft 327 kts 306°
2026-05-05 13:27 50.99939 8.64376 27831 ft 325 kts 306°
2026-05-05 13:27 51.01941 8.60856 27828 ft 325 kts 309°
2026-05-05 13:28 51.03608 8.58415 27836 ft 327 kts 315°
2026-05-05 13:28 51.04811 8.56889 27847 ft 328 kts 317°
2026-05-05 13:28 51.06610 8.54665 27782 ft 327 kts 317°
2026-05-05 13:28 51.08443 8.52507 27769 ft 329 kts 320°
2026-05-05 13:29 51.10357 8.50499 27788 ft 330 kts 323°
2026-05-05 13:29 51.12303 8.48567 27826 ft 330 kts 323°
2026-05-05 13:29 51.14235 8.46595 27843 ft 330 kts 322°
2026-05-05 13:29 51.16142 8.44572 27867 ft 329 kts 321°
2026-05-05 13:30 51.18046 8.42536 27850 ft 330 kts 322°
2026-05-05 13:30 51.19967 8.40535 27835 ft 330 kts 322°
2026-05-05 13:30 51.21877 8.38516 27827 ft 329 kts 321°
2026-05-05 13:30 51.23775 8.36469 27836 ft 329 kts 321°
2026-05-05 13:31 51.25667 8.34415 27856 ft 329 kts 321°
2026-05-05 13:31 51.27585 8.32403 27796 ft 330 kts 322°
2026-05-05 13:31 51.29513 8.30436 27813 ft 329 kts 323°
2026-05-05 13:31 51.31450 8.28491 27821 ft 328 kts 323°
2026-05-05 13:32 51.33387 8.26566 27850 ft 328 kts 323°
2026-05-05 13:32 51.35333 8.24648 27860 ft 328 kts 324°
2026-05-05 13:32 51.37317 8.22698 27174 ft 342 kts 324°
2026-05-05 13:32 51.39363 8.20674 26618 ft 347 kts 324°
2026-05-05 13:33 51.41362 8.18577 26405 ft 338 kts 321°
2026-05-05 13:33 51.43266 8.16457 26264 ft 329 kts 320°
2026-05-05 13:33 51.44964 8.14113 26066 ft 317 kts 309°
2026-05-05 13:33 51.46370 8.11445 25724 ft 312 kts 301°
2026-05-05 13:34 51.47537 8.08537 25339 ft 309 kts 294°
2026-05-05 13:34 51.48436 8.05430 24962 ft 305 kts 285°
2026-05-05 13:34 51.49020 8.02189 24627 ft 301 kts 276°
2026-05-05 13:34 51.49282 7.98882 24297 ft 297 kts 268°
2026-05-05 13:35 51.49237 7.95599 23962 ft 293 kts 260°
2026-05-05 13:35 51.48897 7.92395 23628 ft 290 kts 252°
2026-05-05 13:35 51.48353 7.89285 23287 ft 289 kts 250°
2026-05-05 13:35 51.47799 7.86181 22918 ft 288 kts 250°
2026-05-05 13:36 51.47251 7.83102 22568 ft 287 kts 251°
2026-05-05 13:36 51.46702 7.80030 22232 ft 286 kts 251°
2026-05-05 13:36 51.46158 7.76971 21901 ft 285 kts 251°
2026-05-05 13:36 51.45616 7.73924 21592 ft 284 kts 251°
2026-05-05 13:37 51.45076 7.70887 21272 ft 282 kts 251°
2026-05-05 13:37 51.44536 7.67867 20989 ft 282 kts 251°
2026-05-05 13:37 51.43995 7.64844 20545 ft 285 kts 251°
2026-05-05 13:37 51.43432 7.61729 20060 ft 291 kts 251°
2026-05-05 13:38 51.42876 7.58647 19935 ft 284 kts 251°
2026-05-05 13:38 51.42334 7.55635 19723 ft 280 kts 251°
2026-05-05 13:38 51.41845 7.52624 19458 ft 280 kts 261°
2026-05-05 13:38 51.41991 7.49521 19190 ft 284 kts 285°
2026-05-05 13:39 51.42962 7.46773 18923 ft 287 kts 312°
2026-05-05 13:39 51.44582 7.44981 18781 ft 283 kts 338°
2026-05-05 13:39 51.46500 7.44466 18573 ft 281 kts
2026-05-05 13:39 51.48351 7.45293 18326 ft 278 kts 31°
2026-05-05 13:40 51.49811 7.47295 18060 ft 274 kts 57°
2026-05-05 13:40 51.50633 7.50008 17742 ft 270 kts 74°
2026-05-05 13:40 51.51203 7.52883 17432 ft 270 kts 76°
2026-05-05 13:40 51.51726 7.55776 17166 ft 269 kts 76°
2026-05-05 13:41 51.52234 7.58665 16903 ft 269 kts 77°
2026-05-05 13:41 51.52740 7.61549 16652 ft 268 kts 76°
2026-05-05 13:41 51.53247 7.64422 16418 ft 267 kts 76°
2026-05-05 13:41 51.53758 7.67283 16175 ft 266 kts 76°
2026-05-05 13:42 51.54271 7.70132 15951 ft 265 kts 76°
2026-05-05 13:42 51.54785 7.72974 15839 ft 265 kts 76°
2026-05-05 13:42 51.55297 7.75821 15865 ft 266 kts 76°
2026-05-05 13:42 51.55813 7.78681 15866 ft 267 kts 76°
2026-05-05 13:43 51.56333 7.81569 15864 ft 267 kts 76°
2026-05-05 13:43 51.56844 7.84416 15866 ft 267 kts 76°
2026-05-05 13:43 51.57355 7.87282 15864 ft 267 kts 76°
2026-05-05 13:43 51.57869 7.90151 15866 ft 267 kts 76°
2026-05-05 13:44 51.58400 7.93117 15867 ft 267 kts 76°
2026-05-05 13:44 51.58896 7.95901 15866 ft 268 kts 76°
2026-05-05 13:44 51.59408 7.98777 15867 ft 268 kts 76°
2026-05-05 13:44 51.59919 8.01652 15867 ft 267 kts 76°
2026-05-05 13:45 51.60429 8.04528 15870 ft 267 kts 76°
2026-05-05 13:45 51.60937 8.07404 15867 ft 268 kts 76°
2026-05-05 13:45 51.61418 8.10294 15861 ft 267 kts 83°
2026-05-05 13:45 51.61357 8.13213 15858 ft 261 kts 108°
2026-05-05 13:46 51.60582 8.15792 15858 ft 255 kts 132°
2026-05-05 13:46 51.59276 8.17650 15860 ft 250 kts 154°
2026-05-05 13:46 51.57636 8.18564 15860 ft 246 kts 175°
2026-05-05 13:46 51.55947 8.18403 15859 ft 244 kts 196°
2026-05-05 13:47 51.54419 8.17259 15860 ft 245 kts 217°
2026-05-05 13:47 51.53254 8.15272 15859 ft 246 kts 238°
2026-05-05 13:47 51.52611 8.12715 15855 ft 250 kts 253°
2026-05-05 13:47 51.52145 8.10056 15859 ft 251 kts 252°
2026-05-05 13:48 51.51667 8.07361 15863 ft 251 kts 252°
2026-05-05 13:48 51.51181 8.04632 15862 ft 251 kts 251°
2026-05-05 13:48 51.50700 8.01939 15861 ft 251 kts 251°
2026-05-05 13:48 51.50219 7.99248 15861 ft 251 kts 251°
2026-05-05 13:49 51.49743 7.96593 15863 ft 251 kts 251°
2026-05-05 13:49 51.49259 7.93905 15863 ft 251 kts 251°
2026-05-05 13:49 51.48777 7.91209 15862 ft 251 kts 251°
2026-05-05 13:49 51.48294 7.88516 15865 ft 251 kts 251°
2026-05-05 13:50 51.47809 7.85821 15866 ft 251 kts 251°
2026-05-05 13:50 51.47324 7.83130 15864 ft 251 kts 251°
2026-05-05 13:50 51.46840 7.80442 15866 ft 251 kts 251°
2026-05-05 13:50 51.46354 7.77758 15862 ft 251 kts 251°
2026-05-05 13:51 51.45868 7.75074 15865 ft 251 kts 251°
2026-05-05 13:51 51.45382 7.72387 15864 ft 251 kts 251°
2026-05-05 13:51 51.44897 7.69699 15866 ft 251 kts 251°
2026-05-05 13:51 51.44410 7.67005 15871 ft 252 kts 251°
2026-05-05 13:52 51.43919 7.64316 15865 ft 252 kts 251°
2026-05-05 13:52 51.43427 7.61624 15865 ft 252 kts 251°
2026-05-05 13:52 51.42934 7.58933 15865 ft 252 kts 251°
2026-05-05 13:52 51.42440 7.56238 15865 ft 252 kts 251°
2026-05-05 13:53 51.41952 7.53546 15865 ft 252 kts 253°
2026-05-05 13:53 51.41897 7.50740 15861 ft 257 kts 281°
2026-05-05 13:53 51.42699 7.48180 15864 ft 262 kts 310°
2026-05-05 13:53 51.44200 7.46518 15864 ft 267 kts 340°
2026-05-05 13:54 51.46038 7.46243 15863 ft 269 kts 11°
2026-05-05 13:54 51.47730 7.47456 15871 ft 269 kts 42°
2026-05-05 13:54 51.48825 7.49819 15870 ft 264 kts 72°
2026-05-05 13:54 51.49371 7.52631 15867 ft 265 kts 77°
2026-05-05 13:55 51.49886 7.55470 15867 ft 265 kts 76°
2026-05-05 13:55 51.50401 7.58317 15866 ft 265 kts 76°
2026-05-05 13:55 51.50917 7.61159 15865 ft 265 kts 76°
2026-05-05 13:55 51.51434 7.64004 15866 ft 266 kts 76°
2026-05-05 13:56 51.51951 7.66853 15865 ft 266 kts 76°
2026-05-05 13:56 51.52465 7.69696 15865 ft 265 kts 76°
2026-05-05 13:56 51.52976 7.72544 15856 ft 266 kts 76°
2026-05-05 13:56 51.53489 7.75397 15865 ft 266 kts 76°
2026-05-05 13:57 51.54004 7.78254 15868 ft 266 kts 76°
2026-05-05 13:57 51.54521 7.81105 15866 ft 266 kts 76°
2026-05-05 13:57 51.55039 7.83960 15867 ft 267 kts 76°
2026-05-05 13:57 51.55555 7.86823 15866 ft 267 kts 76°
2026-05-05 13:58 51.56068 7.89689 15865 ft 267 kts 76°
2026-05-05 13:58 51.56580 7.92563 15867 ft 267 kts 76°
2026-05-05 13:58 51.57088 7.95433 15868 ft 267 kts 76°
2026-05-05 13:58 51.57595 7.98306 15865 ft 267 kts 76°
2026-05-05 13:59 51.58617 8.04054 15865 ft 267 kts 77°
2026-05-05 13:59 51.58761 8.06977 15861 ft 261 kts 104°
2026-05-05 14:00 51.56671 8.11282 15864 ft 248 kts 160°
2026-05-05 14:00 51.55559 8.11762 15860 ft 245 kts 178°
2026-05-05 14:00 51.53396 8.11031 15861 ft 244 kts 211°
2026-05-05 14:00 51.52160 8.09185 15861 ft 246 kts 236°
2026-05-05 14:01 51.51532 8.06627 15866 ft 250 kts 253°
2026-05-05 14:01 51.51074 8.03926 15862 ft 251 kts 252°
2026-05-05 14:01 51.50597 8.01231 15862 ft 251 kts 252°
2026-05-05 14:01 51.50115 7.98543 15863 ft 251 kts 251°
2026-05-05 14:02 51.49631 7.95853 15862 ft 251 kts 251°
2026-05-05 14:02 51.49144 7.93163 15863 ft 251 kts 251°
2026-05-05 14:02 51.48654 7.90476 15863 ft 251 kts 251°
2026-05-05 14:02 51.48165 7.87786 15865 ft 251 kts 251°
2026-05-05 14:03 51.47679 7.85097 15865 ft 251 kts 251°
2026-05-05 14:03 51.47193 7.82404 15867 ft 251 kts 251°
2026-05-05 14:03 51.46707 7.79714 15864 ft 251 kts 251°
2026-05-05 14:03 51.46222 7.77025 15865 ft 251 kts 251°
2026-05-05 14:04 51.45737 7.74338 15866 ft 251 kts 251°
2026-05-05 14:04 51.45249 7.71652 15864 ft 251 kts 251°
2026-05-05 14:04 51.44763 7.68967 15874 ft 251 kts 251°
2026-05-05 14:04 51.44275 7.66275 15867 ft 252 kts 251°
2026-05-05 14:05 51.43785 7.63578 15866 ft 252 kts 251°
2026-05-05 14:05 51.43294 7.60884 15866 ft 252 kts 251°
2026-05-05 14:05 51.42803 7.58193 15865 ft 252 kts 252°
2026-05-05 14:05 51.42312 7.55501 15866 ft 252 kts 251°
2026-05-05 14:06 51.41861 7.52789 15856 ft 253 kts 260°
2026-05-05 14:06 51.42044 7.49987 15863 ft 259 kts 289°
2026-05-05 14:06 51.43071 7.47616 15864 ft 265 kts 319°
2026-05-05 14:06 51.44114 7.46607 15864 ft 267 kts 339°
2026-05-05 14:07 51.46573 7.46497 15865 ft 270 kts 21°
2026-05-05 14:07 51.48118 7.48108 15870 ft 267 kts 52°
2026-05-05 14:07 51.48778 7.49767 15870 ft 264 kts 71°
2026-05-05 14:07 51.49333 7.52573 15866 ft 265 kts 77°
2026-05-05 14:08 51.49848 7.55416 15866 ft 265 kts 76°
2026-05-05 14:08 51.50363 7.58257 15865 ft 265 kts 76°
2026-05-05 14:08 51.50878 7.61106 15865 ft 266 kts 76°
2026-05-05 14:08 51.51393 7.63950 15866 ft 266 kts 76°
2026-05-05 14:09 51.51909 7.66798 15866 ft 266 kts 76°
2026-05-05 14:09 51.52425 7.69644 15865 ft 266 kts 76°
2026-05-05 14:09 51.52941 7.72496 15855 ft 266 kts 76°
2026-05-05 14:09 51.53463 7.75389 15863 ft 266 kts 76°
2026-05-05 14:10 51.53977 7.78242 15864 ft 266 kts 76°
2026-05-05 14:10 51.54489 7.81100 15864 ft 266 kts 76°
2026-05-05 14:10 51.55001 7.83955 15868 ft 266 kts 76°
2026-05-05 14:10 51.55510 7.86781 15866 ft 267 kts 76°
2026-05-05 14:11 51.56025 7.89650 15867 ft 268 kts 76°
2026-05-05 14:11 51.56539 7.92520 15865 ft 267 kts 76°
2026-05-05 14:11 51.57050 7.95393 15865 ft 267 kts 76°
2026-05-05 14:11 51.57563 7.98272 15865 ft 268 kts 76°
2026-05-05 14:12 51.58074 8.01145 15863 ft 267 kts 76°
2026-05-05 14:12 51.58584 8.04018 15863 ft 267 kts 77°
2026-05-05 14:12 51.58711 8.06945 15859 ft 261 kts 105°
2026-05-05 14:12 51.57969 8.09530 15863 ft 254 kts 134°
2026-05-05 14:13 51.56589 8.11207 15863 ft 248 kts 161°
2026-05-05 14:13 51.54917 8.11660 15860 ft 244 kts 187°
2026-05-05 14:13 51.53310 8.10858 15861 ft 244 kts 212°
2026-05-05 14:13 51.52098 8.08974 15859 ft 246 kts 238°
2026-05-05 14:14 51.51495 8.06382 15865 ft 251 kts 253°
2026-05-05 14:14 51.51036 8.03682 15864 ft 251 kts 252°
2026-05-05 14:14 51.50556 8.00984 15862 ft 251 kts 251°
2026-05-05 14:14 51.50061 7.98255 15860 ft 251 kts 251°
2026-05-05 14:15 51.49580 7.95598 15864 ft 252 kts 251°
2026-05-05 14:15 51.49090 7.92902 15862 ft 251 kts 252°
2026-05-05 14:15 51.48603 7.90206 15865 ft 251 kts 251°
2026-05-05 14:15 51.48120 7.87518 15864 ft 251 kts 251°
2026-05-05 14:16 51.47634 7.84825 15864 ft 251 kts 252°
2026-05-05 14:16 51.47147 7.82133 15865 ft 251 kts 251°
2026-05-05 14:16 51.46661 7.79444 15865 ft 251 kts 251°
2026-05-05 14:16 51.46174 7.76749 15864 ft 251 kts 251°
2026-05-05 14:17 51.45688 7.74061 15865 ft 251 kts 251°
2026-05-05 14:17 51.45198 7.71368 15865 ft 251 kts 251°
2026-05-05 14:17 51.44710 7.68682 15872 ft 251 kts 251°
2026-05-05 14:17 51.44222 7.65993 15867 ft 251 kts 251°
2026-05-05 14:18 51.43734 7.63299 15866 ft 252 kts 251°
2026-05-05 14:18 51.43243 7.60604 15865 ft 252 kts 251°
2026-05-05 14:18 51.42752 7.57912 15866 ft 252 kts 251°
2026-05-05 14:18 51.42260 7.55213 15866 ft 252 kts 251°
2026-05-05 14:19 51.41837 7.52491 15855 ft 254 kts 264°
2026-05-05 14:19 51.42105 7.49696 15863 ft 259 kts 292°
2026-05-05 14:19 51.43202 7.47404 15864 ft 265 kts 322°
2026-05-05 14:19 51.44884 7.46228 15865 ft 269 kts 352°
2026-05-05 14:20 51.46730 7.46524 15866 ft 269 kts 23°
2026-05-05 14:20 51.48237 7.48234 15873 ft 267 kts 54°
2026-05-05 14:20 51.49053 7.50864 15873 ft 264 kts 77°
2026-05-05 14:20 51.49573 7.53696 15866 ft 265 kts 76°
2026-05-05 14:21 51.50084 7.56542 15867 ft 265 kts 77°
2026-05-05 14:21 51.50595 7.59390 15866 ft 266 kts 76°
2026-05-05 14:21 51.51109 7.62236 15865 ft 265 kts 76°
2026-05-05 14:21 51.51621 7.65083 15865 ft 265 kts 76°
2026-05-05 14:22 51.52133 7.67925 15863 ft 266 kts 76°
2026-05-05 14:22 51.52648 7.70774 15865 ft 265 kts 76°
2026-05-05 14:22 51.53165 7.73621 15861 ft 266 kts 76°
2026-05-05 14:22 51.53681 7.76469 15864 ft 266 kts 76°
2026-05-05 14:23 51.54196 7.79322 15866 ft 266 kts 76°
2026-05-05 14:23 51.54710 7.82169 15865 ft 266 kts 76°
2026-05-05 14:23 51.55223 7.85029 15866 ft 267 kts 76°
2026-05-05 14:23 51.55739 7.87896 15866 ft 268 kts 76°
2026-05-05 14:24 51.56256 7.90767 15866 ft 267 kts 76°
2026-05-05 14:24 51.56772 7.93643 15864 ft 268 kts 76°
2026-05-05 14:24 51.57284 7.96517 15865 ft 268 kts 76°
2026-05-05 14:24 51.57795 7.99396 15865 ft 267 kts 76°
2026-05-05 14:25 51.58302 8.02269 15867 ft 267 kts 76°
2026-05-05 14:25 51.58770 8.05159 15858 ft 266 kts 85°
2026-05-05 14:25 51.58584 8.08049 15865 ft 259 kts 115°
2026-05-05 14:25 51.57585 8.10374 15866 ft 252 kts 143°
2026-05-05 14:26 51.56055 8.11633 15859 ft 247 kts 170°
2026-05-05 14:26 51.54357 8.11637 15862 ft 245 kts 195°
2026-05-05 14:26 51.52851 8.10422 15859 ft 245 kts 221°
2026-05-05 14:26 51.51844 8.08227 15859 ft 248 kts 246°
2026-05-05 14:27 51.51343 8.05551 15864 ft 251 kts 252°
2026-05-05 14:27 51.50870 8.02850 15862 ft 251 kts 252°
2026-05-05 14:27 51.50390 8.00156 15861 ft 251 kts 252°
2026-05-05 14:27 51.49907 7.97459 15863 ft 251 kts 252°
2026-05-05 14:28 51.49416 7.94729 15861 ft 251 kts 251°
2026-05-05 14:28 51.48937 7.92064 15862 ft 252 kts 251°
2026-05-05 14:28 51.48451 7.89366 15864 ft 252 kts 251°
2026-05-05 14:28 51.47965 7.86666 15864 ft 252 kts 251°
2026-05-05 14:29 51.47478 7.83971 15867 ft 252 kts 251°
2026-05-05 14:29 51.46990 7.81276 15868 ft 251 kts 251°
2026-05-05 14:29 51.46504 7.78582 15865 ft 252 kts 251°
2026-05-05 14:29 51.46019 7.75891 15864 ft 251 kts 251°
2026-05-05 14:30 51.45534 7.73196 15866 ft 252 kts 251°
2026-05-05 14:30 51.45048 7.70499 15864 ft 252 kts 251°
2026-05-05 14:30 51.44559 7.67801 15871 ft 252 kts 251°
2026-05-05 14:30 51.44070 7.65110 15866 ft 252 kts 251°
2026-05-05 14:31 51.43571 7.62382 15866 ft 252 kts 251°
2026-05-05 14:31 51.43080 7.59698 15865 ft 251 kts 251°
2026-05-05 14:31 51.42595 7.57043 15865 ft 252 kts 251°
2026-05-05 14:31 51.42103 7.54347 15865 ft 252 kts 251°
2026-05-05 14:32 51.41829 7.51580 15862 ft 255 kts 273°
2026-05-05 14:32 51.42381 7.48874 15869 ft 261 kts 302°
2026-05-05 14:32 51.43708 7.46891 15870 ft 266 kts 332°
2026-05-05 14:32 51.45494 7.46177 15869 ft 269 kts
2026-05-05 14:33 51.47278 7.46978 15872 ft 269 kts 33°
2026-05-05 14:33 51.48578 7.49078 15878 ft 266 kts 64°
2026-05-05 14:33 51.49211 7.51842 15869 ft 265 kts 77°
2026-05-05 14:33 51.49731 7.54682 15865 ft 265 kts 77°
2026-05-05 14:34 51.50246 7.57526 15866 ft 266 kts 77°
2026-05-05 14:34 51.50760 7.60369 15865 ft 265 kts 76°
2026-05-05 14:34 51.51273 7.63217 15865 ft 266 kts 77°
2026-05-05 14:34 51.51786 7.66068 15866 ft 266 kts 76°
2026-05-05 14:35 51.52299 7.68915 15865 ft 265 kts 76°
2026-05-05 14:35 51.52815 7.71769 15855 ft 265 kts 76°
2026-05-05 14:35 51.53328 7.74606 15866 ft 266 kts 76°
2026-05-05 14:35 51.53844 7.77453 15865 ft 265 kts 76°
2026-05-05 14:36 51.54360 7.80302 15866 ft 265 kts 76°
2026-05-05 14:36 51.54873 7.83151 15868 ft 266 kts 76°
2026-05-05 14:36 51.55386 7.86013 15869 ft 267 kts 76°
2026-05-05 14:36 51.55900 7.88879 15867 ft 267 kts 76°
2026-05-05 14:37 51.56414 7.91755 15869 ft 268 kts 76°
2026-05-05 14:37 51.56928 7.94629 15867 ft 268 kts 76°
2026-05-05 14:37 51.57441 7.97505 15868 ft 267 kts 77°
2026-05-05 14:37 51.57951 8.00381 15868 ft 268 kts 77°
2026-05-05 14:38 51.58465 8.03262 15866 ft 268 kts 76°
2026-05-05 14:38 51.58787 8.06176 15859 ft 263 kts 97°
2026-05-05 14:38 51.58272 8.08930 15865 ft 256 kts 126°
2026-05-05 14:38 51.57038 8.10901 15869 ft 249 kts 153°
2026-05-05 14:39 51.55415 8.11720 15866 ft 245 kts 180°
2026-05-05 14:39 51.53757 8.11261 15865 ft 244 kts 205°
2026-05-05 14:39 51.52404 8.09654 15862 ft 245 kts 230°
2026-05-05 14:39 51.51630 8.07209 15868 ft 250 kts 253°
2026-05-05 14:40 51.51177 8.04500 15867 ft 252 kts 252°
2026-05-05 14:40 51.50699 8.01793 15865 ft 252 kts 252°
2026-05-05 14:40 51.50212 7.99094 15865 ft 252 kts 251°
2026-05-05 14:40 51.49723 7.96401 15866 ft 251 kts 251°
2026-05-05 14:41 51.49236 7.93707 15867 ft 252 kts 251°
2026-05-05 14:41 51.48748 7.91012 15865 ft 252 kts 251°
2026-05-05 14:41 51.48260 7.88312 15865 ft 252 kts 251°
2026-05-05 14:41 51.47771 7.85611 15866 ft 252 kts 251°
2026-05-05 14:42 51.47281 7.82912 15866 ft 252 kts 251°
2026-05-05 14:42 51.46793 7.80214 15865 ft 252 kts 251°
2026-05-05 14:42 51.46306 7.77515 15865 ft 252 kts 251°
2026-05-05 14:42 51.45820 7.74822 15865 ft 251 kts 251°
2026-05-05 14:43 51.45336 7.72129 15864 ft 252 kts 251°
2026-05-05 14:43 51.44849 7.69432 15865 ft 252 kts 251°
2026-05-05 14:43 51.44361 7.66738 15867 ft 252 kts 251°
2026-05-05 14:43 51.43871 7.64037 15866 ft 252 kts 251°
2026-05-05 14:44 51.43379 7.61344 15867 ft 252 kts 251°
2026-05-05 14:44 51.42886 7.58653 15865 ft 252 kts 251°
2026-05-05 14:44 51.42393 7.55959 15865 ft 251 kts 251°
2026-05-05 14:44 51.41916 7.53263 15863 ft 252 kts 255°
2026-05-05 14:45 51.41952 7.50455 15862 ft 258 kts 284°
2026-05-05 14:45 51.42840 7.47964 15872 ft 263 kts 313°
2026-05-05 14:45 51.44401 7.46443 15872 ft 268 kts 344°
2026-05-05 14:45 51.46253 7.46355 15873 ft 270 kts 15°
2026-05-05 14:46 51.47889 7.47753 15882 ft 268 kts 46°
2026-05-05 14:46 51.48875 7.50224 15867 ft 264 kts 74°
2026-05-05 14:46 51.49402 7.53049 15867 ft 265 kts 77°
2026-05-05 14:46 51.49916 7.55890 15865 ft 265 kts 77°
2026-05-05 14:47 51.50429 7.58736 15865 ft 265 kts 76°
2026-05-05 14:47 51.50944 7.61582 15865 ft 266 kts 76°
2026-05-05 14:47 51.51461 7.64430 15865 ft 266 kts 76°
2026-05-05 14:47 51.51804 7.66315 15865 ft 266 kts 76°
2026-05-05 14:48 51.52320 7.69157 15863 ft 265 kts 76°
2026-05-05 14:48 51.52836 7.72007 15859 ft 266 kts 76°
2026-05-05 14:48 51.53351 7.74854 15864 ft 265 kts 76°
2026-05-05 14:48 51.53866 7.77696 15865 ft 265 kts 76°
2026-05-05 14:49 51.54381 7.80542 15867 ft 265 kts 76°
2026-05-05 14:49 51.54889 7.83368 15867 ft 265 kts 76°
2026-05-05 14:49 51.55410 7.86275 15867 ft 267 kts 76°
2026-05-05 14:49 51.55921 7.89120 15869 ft 268 kts 76°
2026-05-05 14:50 51.56440 7.91999 15865 ft 268 kts 76°
2026-05-05 14:50 51.56953 7.94871 15867 ft 268 kts 77°
2026-05-05 14:50 51.57463 7.97749 15868 ft 268 kts 77°
2026-05-05 14:50 51.57974 8.00633 15868 ft 268 kts 77°
2026-05-05 14:51 51.58485 8.03513 15870 ft 267 kts 76°
2026-05-05 14:51 51.58736 8.06435 15864 ft 262 kts 101°
2026-05-05 14:51 51.58127 8.09127 15869 ft 255 kts 129°
2026-05-05 14:51 51.56831 8.10974 15869 ft 249 kts 156°
2026-05-05 14:52 51.55176 8.11628 15862 ft 246 kts 183°
2026-05-05 14:52 51.53536 8.11014 15864 ft 243 kts 208°
2026-05-05 14:52 51.52244 8.09279 15864 ft 246 kts 233°
2026-05-05 14:52 51.51546 8.06762 15869 ft 251 kts 253°
2026-05-05 14:53 51.51075 8.04054 15867 ft 252 kts 252°
2026-05-05 14:53 51.50601 8.01351 15865 ft 252 kts 252°
2026-05-05 14:53 51.50120 7.98642 15866 ft 252 kts 252°
2026-05-05 14:53 51.49636 7.95942 15865 ft 252 kts 251°
2026-05-05 14:54 51.49150 7.93238 15865 ft 252 kts 251°
2026-05-05 14:54 51.48661 7.90537 15865 ft 252 kts 251°
2026-05-05 14:54 51.48173 7.87841 15867 ft 252 kts 251°
2026-05-05 14:54 51.47687 7.85143 15866 ft 252 kts 251°
2026-05-05 14:55 51.47202 7.82440 15867 ft 252 kts 251°
2026-05-05 14:55 51.46714 7.79739 15866 ft 252 kts 251°
2026-05-05 14:55 51.46225 7.77038 15866 ft 252 kts 251°
2026-05-05 14:55 51.45737 7.74335 15865 ft 252 kts 251°
2026-05-05 14:56 51.45252 7.71634 15864 ft 252 kts 251°
2026-05-05 14:56 51.44766 7.68937 15873 ft 252 kts 251°
2026-05-05 14:56 51.44279 7.66247 15868 ft 252 kts 251°
2026-05-05 14:56 51.43788 7.63554 15866 ft 252 kts 251°
2026-05-05 14:57 51.43294 7.60863 15865 ft 252 kts 251°
2026-05-05 14:57 51.42801 7.58168 15866 ft 252 kts 251°
2026-05-05 14:57 51.42308 7.55475 15866 ft 252 kts 251°
2026-05-05 14:57 51.41858 7.52762 15857 ft 253 kts 261°
2026-05-05 14:58 51.42050 7.49959 15864 ft 259 kts 289°
2026-05-05 14:58 51.43077 7.47587 15875 ft 264 kts 318°
2026-05-05 14:58 51.44721 7.46289 15876 ft 268 kts 349°
2026-05-05 14:58 51.46570 7.46468 15876 ft 269 kts 21°
2026-05-05 14:59 51.48119 7.48086 15884 ft 267 kts 51°
2026-05-05 14:59 51.48984 7.50673 15869 ft 264 kts 76°
2026-05-05 14:59 51.49502 7.53506 15867 ft 265 kts 77°
2026-05-05 14:59 51.50017 7.56349 15866 ft 265 kts 76°
2026-05-05 15:00 51.50533 7.59194 15862 ft 266 kts 76°
2026-05-05 15:00 51.50875 7.61078 15864 ft 266 kts 77°
2026-05-05 15:00 51.51565 7.64887 15865 ft 266 kts 76°
2026-05-05 15:00 51.52083 7.67738 15865 ft 266 kts 76°
2026-05-05 15:01 51.52599 7.70586 15868 ft 266 kts 76°
2026-05-05 15:01 51.53113 7.73433 15863 ft 265 kts 76°
2026-05-05 15:01 51.53627 7.76276 15864 ft 265 kts 77°
2026-05-05 15:01 51.54142 7.79121 15866 ft 265 kts 76°
2026-05-05 15:02 51.54656 7.81964 15866 ft 265 kts 76°
2026-05-05 15:02 51.55170 7.84815 15867 ft 266 kts 77°
2026-05-05 15:02 51.55684 7.87687 15869 ft 268 kts 76°
2026-05-05 15:02 51.56196 7.90558 15870 ft 268 kts 76°
2026-05-05 15:03 51.56709 7.93434 15868 ft 268 kts 76°
2026-05-05 15:03 51.57222 7.96313 15868 ft 268 kts 77°
2026-05-05 15:03 51.57733 7.99189 15868 ft 268 kts 76°
2026-05-05 15:03 51.58248 8.02096 15868 ft 268 kts 76°
2026-05-05 15:04 51.58724 8.04953 15862 ft 267 kts 83°
2026-05-05 15:04 51.58577 8.07854 15869 ft 259 kts 114°
2026-05-05 15:04 51.57604 8.10206 15867 ft 252 kts 142°
2026-05-05 15:04 51.56101 8.11525 15865 ft 246 kts 169°
2026-05-05 15:05 51.52904 8.10405 15864 ft 244 kts 220°
2026-05-05 15:05 51.51863 8.08254 15864 ft 249 kts 245°
2026-05-05 15:05 51.51336 8.05589 15867 ft 251 kts 252°
2026-05-05 15:06 51.50855 8.02891 15866 ft 252 kts 251°
2026-05-05 15:06 51.50375 8.00188 15865 ft 252 kts 252°
2026-05-05 15:06 51.49891 7.97480 15864 ft 252 kts 251°
2026-05-05 15:06 51.49408 7.94776 15865 ft 253 kts 252°
2026-05-05 15:07 51.48923 7.92069 15866 ft 253 kts 251°
2026-05-05 15:07 51.48439 7.89358 15866 ft 252 kts 251°
2026-05-05 15:07 51.47956 7.86656 15866 ft 252 kts 251°
2026-05-05 15:07 51.47470 7.83952 15866 ft 252 kts 251°
2026-05-05 15:08 51.46984 7.81248 15864 ft 252 kts 251°
2026-05-05 15:08 51.46495 7.78549 15866 ft 253 kts 251°
2026-05-05 15:08 51.46006 7.75846 15865 ft 252 kts 251°
2026-05-05 15:08 51.45518 7.73139 15865 ft 253 kts 251°
2026-05-05 15:09 51.45030 7.70431 15868 ft 253 kts 251°
2026-05-05 15:09 51.44542 7.67732 15868 ft 252 kts 252°
2026-05-05 15:09 51.44052 7.65033 15857 ft 252 kts 251°
2026-05-05 15:09 51.43548 7.62279 15381 ft 263 kts 251°
2026-05-05 15:10 51.43038 7.59494 15271 ft 256 kts 251°
2026-05-05 15:10 51.42545 7.56798 15360 ft 251 kts 251°
2026-05-05 15:10 51.42055 7.54126 15324 ft 249 kts 251°
2026-05-05 15:10 51.41578 7.51462 15105 ft 248 kts 252°
2026-05-05 15:11 51.41124 7.48800 14892 ft 247 kts 252°
2026-05-05 15:11 51.40678 7.46144 14672 ft 247 kts 252°
2026-05-05 15:11 51.40264 7.43485 14483 ft 245 kts 256°
2026-05-05 15:11 51.40026 7.40784 14314 ft 245 kts 262°
2026-05-05 15:12 51.39897 7.38063 14095 ft 246 kts 263°
2026-05-05 15:12 51.39873 7.35327 13896 ft 247 kts 274°
2026-05-05 15:12 51.40303 7.32657 13706 ft 250 kts 292°
2026-05-05 15:12 51.41004 7.30117 13459 ft 249 kts 290°
2026-05-05 15:13 51.41669 7.27560 13226 ft 248 kts 289°
2026-05-05 15:13 51.42331 7.25008 12987 ft 247 kts 290°
2026-05-05 15:13 51.42986 7.22465 12736 ft 247 kts 289°
2026-05-05 15:13 51.43645 7.19871 12142 ft 260 kts 289°
2026-05-05 15:14 51.44332 7.17100 11611 ft 270 kts 288°
2026-05-05 15:14 51.44706 7.14227 11473 ft 257 kts 270°
2026-05-05 15:14 51.44538 7.11473 11343 ft 242 kts 253°
2026-05-05 15:14 51.43928 7.09056 11220 ft 228 kts 237°
2026-05-05 15:15 51.43024 7.07059 11086 ft 216 kts 227°
2026-05-05 15:15 51.41877 7.05664 10944 ft 203 kts 199°
2026-05-05 15:15 51.40506 7.05547 10696 ft 199 kts 163°
2026-05-05 15:15 51.39428 7.06802 10576 ft 192 kts 127°
2026-05-05 15:16 51.39117 7.08801 10455 ft 183 kts 87°
2026-05-05 15:16 51.39679 7.10476 10274 ft 168 kts 40°
2026-05-05 15:16 51.40737 7.10978 9974 ft 159 kts 348°
2026-05-05 15:16 51.41619 7.10104 9571 ft 149 kts 296°
2026-05-05 15:17 51.41723 7.08574 9155 ft 139 kts 244°
2026-05-05 15:17 51.41040 7.07648 8756 ft 132 kts 189°
2026-05-05 15:17 51.40182 7.08073 8328 ft 136 kts 138°
2026-05-05 15:17 51.39869 7.09500 7849 ft 150 kts 90°
2026-05-05 15:18 51.40364 7.11095 7156 ft 173 kts 44°
2026-05-05 15:18 51.41465 7.11825 6574 ft 176 kts
2026-05-05 15:18 51.42602 7.11247 6002 ft 173 kts 322°
2026-05-05 15:18 51.43224 7.09654 5383 ft 171 kts 281°
2026-05-05 15:19 51.43044 7.07814 4743 ft 171 kts 241°
2026-05-05 15:19 51.42148 7.06593 4054 ft 174 kts 200°
2026-05-05 15:19 51.40963 7.06592 3382 ft 173 kts 159°
2026-05-05 15:19 51.40083 7.07802 2749 ft 166 kts 115°
2026-05-05 15:20 51.40058 7.09440 2466 ft 141 kts 61°
2026-05-05 15:20 51.40828 7.10157 2258 ft 133 kts
2026-05-05 15:20 51.41591 7.09376 2008 ft 137 kts 307°
2026-05-05 15:20 51.41907 7.07915 1768 ft 141 kts 283°
2026-05-05 15:21 51.41836 7.06358 1645 ft 143 kts 256°
2026-05-05 15:21 51.41370 7.04948 1677 ft 144 kts 237°
2026-05-05 15:21 51.40800 7.03631 1638 ft 144 kts 238°
2026-05-05 15:21 51.40348 7.02186 1515 ft 144 kts 249°
2026-05-05 15:22 51.39881 7.00809 1450 ft 139 kts 239°
2026-05-05 15:22 51.39363 6.99472 1533 ft 142 kts 238°
2026-05-05 15:22 51.38798 6.98159 1583 ft 143 kts 236°
2026-05-05 15:22 51.38218 6.96876 1620 ft 145 kts 236°
2026-05-05 15:23 51.37615 6.95574 1647 ft 143 kts 234°
2026-05-05 15:23 51.37018 6.94299 1644 ft 143 kts 233°
2026-05-05 15:23 51.36418 6.93022 1660 ft 142 kts 237°
2026-05-05 15:23 51.35826 6.91771 1648 ft 142 kts 235°
2026-05-05 15:24 51.35242 6.90536 1660 ft 140 kts 235°
2026-05-05 15:24 51.34654 6.89292 1654 ft 142 kts 236°
2026-05-05 15:24 51.34052 6.88023 1618 ft 144 kts 233°
2026-05-05 15:24 51.33440 6.86731 1493 ft 143 kts 235°
2026-05-05 15:25 51.32851 6.85491 1319 ft 139 kts 234°
2026-05-05 15:25 51.32259 6.84241 1130 ft 142 kts 236°
2026-05-05 15:25 51.31675 6.83012 967 ft 137 kts 235°